Location: Saint-Denis
(20.8800°S, 55.4481°E)
Time: 00:48:20
(UTC+04:00)

THORAD AGENA D DEB - Visible Passes

Search period start: 27 February 2024 00:00
Search period end: 08 March 2024 00:00
Orbit: 955 x 966 km, 100.1° (Epoch: 23 February)

Date Brightness Start Highest point End Pass type
(mag) Time Alt. Az. Time Alt. Az. Time Alt. Az.
28 Feb ? 05:31:09 10° ESE 05:33:11 12° E 05:35:13 10° ENE visible
29 Feb ? 05:49:25 10° SE 05:53:42 20° E 05:57:57 10° NE visible
29 Feb ? 19:01:25 10° NNW 19:06:57 38° WNW 19:12:32 10° SW visible
01 Mar ? 19:22:41 10° NNW 19:27:25 24° W 19:32:11 10° SW visible
02 Mar ? 19:44:42 10° NW 19:47:54 15° W 19:51:07 10° WSW visible
04 Mar ? 05:30:56 10° E 05:32:25 11° E 05:33:54 10° ENE visible
05 Mar ? 05:48:49 10° SE 05:52:55 19° E 05:57:00 10° NE visible
05 Mar ? 19:00:34 10° N 19:06:10 40° WNW 19:11:48 10° SSW visible
06 Mar ? 19:21:45 10° NNW 19:26:35 26° W 19:31:30 10° SW visible
07 Mar ? 19:43:38 10° NW 19:47:04 16° W 19:50:33 10° WSW visible
